Tracking 31027 objects as of 19-Jul-2025
HD Live streaming from Space Station
objects crossing your sky now

TJS-7

Track TJS-7 now!
TJS-7 is classified as:


NORAD ID: 49115
Int'l Code: 2021-077A
Perigee: 35,786.8 km
Apogee: 35,801.5 km
Inclination: 0.5 °
Period: 1,436.1 minutes
Semi major axis: 42165 km
RCS: Unknown
Launch date: August 24, 2021
Source: People's Republic of China (PRC)
Launch site: Xichang Space Center, China (XSC)
Your satellite tracking list
NOAA 16 DEB
Track 1 satellite(s)




NASA's NSSDC Master Catalog

Two Line Element Set (TLE):
1 49115U 21077A   25198.60906198 -.00000117  00000-0  00000-0 0  9991
2 49115   0.4957  88.2147 0001749  69.9390 257.3306  1.00270330  6204
Source of the keplerian elements: AFSPC